Regional Weather Roundup
Issued by NWS

Home | Current Version | Previous Version | Text Only | Print | Product List | Glossary On
Versions: 1 2 3 4 5 6 7 8 9 10 11 12 13 14 15 16 17 18 19 20 21 22 23 24 25 26 27 28
000
ASUS43 KDMX 300707
RWRIA

WEATHER ROUNDUP FOR IOWA
NATIONAL WEATHER SERVICE DES MOINES IA
200 AM CDT THU OCT 30 2014

NOTE: "FAIR" INDICATES FEW OR NO CLOUDS BELOW 12,000 FEET WITH NO
SIGNIFICANT WEATHER AND/OR OBSTRUCTIONS TO VISIBILITY.

* - THESE STATIONS ARE NOT NWS STATIONS...THUS NOT UNDER NWS
QUALITY CONTROL.  THEY ALSO DO NOT REPORT WEATHER SUCH
AS PRECIPITATION OR FOG.

IAZ001>003-012>014-020>022-031>034-043>046-300800-
   NORTHWEST IOWA

CITY           SKY/WX    TMP DP  RH WIND       PRES   REMARKS
CARROLL *      CLOUDY    39  36  87 CALM      30.06S
CHEROKEE *     CLOUDY    45  36  70 S7        30.01F
DENISON *      CLOUDY    41  37  87 NE3       30.03F
LE MARS *      CLOUDY    48  34  57 S8        29.99F
ORANGE CITY *  MOCLDY    48  34  57 S6        29.99F
SHELDON *      CLOUDY    43  34  70 E5        30.00F
SIOUX CITY     CLOUDY    47  34  60 SE14      29.99F
SPENCER        CLOUDY    42  36  79 SE5       30.03F
STORM LAKE *   CLOUDY    45  36  70 S13       30.03F
$$

IAZ055>058-069>071-079>083-090>094-300800-
   SOUTHWEST IOWA

CITY           SKY/WX    TMP DP  RH WIND       PRES   REMARKS
ATLANTIC *     MOCLDY    36  34  93 CALM      30.05F
AUDUBON *      CLEAR     37  32  81 CALM      30.05F
CLARINDA *     PTCLDY    37  36  93 CALM      30.07F
COUNCIL BLFS * MOCLDY    45  34  65 SE15      30.01F
CRESTON *      CLEAR     39  34  81 SE7       30.08S WCI  34
HARLAN  *      MOCLDY    39  34  81 CALM      30.07F
LAMONI         MOCLDY    43  33  68 SE7       30.08F
RED OAK *      CLOUDY    45  34  65 E5        30.06S
SHENANDOAH *   PTCLDY    43  36  75 E5        30.04F
$$

IAZ047>049-059>061-072>074-084-300800-
   CENTRAL IOWA

CITY           SKY/WX    TMP DP  RH WIND       PRES   REMARKS
AMES           PTCLDY    36  32  85 SE3       30.08F
ANKENY *       CLEAR     37  34  87 S3        30.09F
CHARITON *     CLOUDY    37  34  87 SE6       30.09F WCI  33
DES MOINES     PTCLDY    42  33  70 S7        30.09F
GRINNELL*      MOCLDY    37  32  81 SE6       30.10F WCI  33
KNOXVILLE *    PTCLDY    39  34  81 SE7       30.09S WCI  34
MARSHALLTOWN   PTCLDY    32  30  92 SE6       30.08F WCI  26
PELLA *        PTCLDY    37  32  81 SE5       30.12S WCI  34
PERRY *          N/A     37  36  93 S5        30.07F WCI  34
$$

IAZ004>006-015-016-023>025-035-036-300800-
   NORTH CENTRAL IOWA

CITY           SKY/WX    TMP DP  RH WIND       PRES   REMARKS
ALGONA *       CLOUDY    41  34  75 S7        30.05S
CLARION *      CLOUDY    41  36  81 S7        30.06S
ESTHERVILLE    CLOUDY    40  32  73 S7        30.03S
FORT DODGE *   CLOUDY    43  34  70 S3        30.07S
MASON CITY     PTCLDY    34  32  92 S3        30.08F
FOREST CITY *  MOCLDY    36  34  93 CALM      30.06F
IOWA FALLS *     N/A     36  32  87 SE3       30.08F
$$

IAZ007>011-017>019-026>030-037>042-050>054-066-300800-
   NORTHEAST IOWA

CITY           SKY/WX    TMP DP  RH WIND       PRES   REMARKS
CEDAR RAPIDS   PTCLDY    32  32 100 S3        30.11F
CHARLES CITY * CLOUDY    37  32  81 SE5       30.09F WCI  34
CLINTON *      CLEAR     30  25  80 CALM      30.16F
DECORAH *      MOCLDY    37  32  81 CALM      30.10S
DUBUQUE        CLEAR     33  30  88 CALM      30.12F
MONTICELLO *   CLEAR     30  30 100 E3        30.12F
OELWEIN *      MOCLDY    34  32  93 SE6       30.11S WCI  29
WATERLOO       MOCLDY    32  30  92 E5        30.09F WCI  27
$$

IAZ064-065-067-068-078-300800-
   EAST CENTRAL IOWA

CITY           SKY/WX    TMP DP  RH WIND       PRES   REMARKS
DAVENPORT      CLEAR     32  27  81 CALM      30.14F
IOWA CITY      PTCLDY    33  31  92 CALM      30.14S
MT. PLEASANT * CLEAR     32  32 100 CALM      30.14S
MUSCATINE *    CLEAR     32  28  86 CALM      30.14F
QUAD CITIES    CLEAR     31  28  89 CALM      30.14F
$$

IAZ062-063-075>077-085>089-095>099-300800-
   SOUTHEAST IOWA

CITY           SKY/WX    TMP DP  RH WIND       PRES   REMARKS
BURLINGTON       N/A     37  35  92 CALM      30.14S
FAIRFIELD *      N/A     34  30  86 SE5       30.13S WCI  30
FORT MADISON * CLEAR     39  36  87 S5        30.15S
KEOKUK *       CLEAR     37  36  93 CALM      30.14S
OSKALOOSA *      N/A     36  32  87 SE7       30.11F WCI  30
CENTERVILLE *  CLEAR     36  34  93 SE3       30.12S
OTTUMWA        PTCLDY    36  32  85 SE6       30.11F WCI  31
WASHINGTON *   CLEAR     34  34 100 S5        30.13F WCI  30
$$

ABBREVIATIONS USED IN REMARKS
   TC - TEMPERATURES IN CELSIUS
  WCI - WIND CHILL INDEX
   HX - HEAT INDEX
  VSB - VISIBILITY
$$




USA.gov is the U.S. government's official web portal to all federal, state and local government web resources and services.